QPF
0.02 0.05 0.06 0.11 0.12 0.10 0.08 0.06 0.03 0.02 0.02 0.02 0.01 0.02 0.02 0.02 0.03 0.04 0.09 0.13 0.06 0.04 0.04 0.06 0.05 0.03 0.03 0.02 0.02 0.02 0.03 0.03 0.03 0.04 0.07 0.06 0.08 0.11 0.11 0.11 0.10 0.09 0.09 0.09 0.10 0.10 0.08 0.06 0.04
0.05 0.06 0.07 0.06 0.08 0.08 0.11 0.07 0.03 0.02 0.01 0.01 0.01 0.02 0.02 0.05 0.07 0.08 0.10 0.08 0.03 0.02 0.03 0.03 0.03 0.03 0.03 0.02 0.02 0.02 0.02 0.02 0.02 0.03 0.05 0.04 0.05 0.06 0.06 0.06 0.08 0.08 0.08 0.09 0.09 0.07 0.05 0.04 0.03
0.09 0.10 0.09 0.07 0.05 0.04 0.08 0.07 0.03 0.03 0.02 0.01 0.01 0.02 0.04 0.11 0.13 0.11 0.07 0.04 0.02 0.01 0.01 0.02 0.02 0.02 0.02 0.02 0.02 0.02 0.02 0.02 0.02 0.02 0.05 0.06 0.05 0.05 0.05 0.04 0.06 0.07 0.07 0.07 0.06 0.06 0.04 0.04 0.03
0.08 0.13 0.08 0.08 0.06 0.04 0.06 0.06 0.03 0.03 0.02 0.01 0.01 0.03 0.09 0.11 0.09 0.07 0.05 0.04 0.02 0.01 0.01 0.02 0.02 0.02 0.02 0.01 0.01 0.01 0.01 0.02 0.01 0.02 0.02 0.04 0.05 0.05 0.05 0.05 0.05 0.07 0.08 0.06 0.06 0.05 0.04 0.04 0.03
0.04 0.07 0.08 0.07 0.07 0.06 0.04 0.02 0.02 0.03 0.02 0.01 0.01 0.02 0.09 0.13 0.06 0.04 0.05 0.05 0.02 0.01 0.02 0.02 0.02 0.02 0.02 0.01 0.01 0.01 0.01 0.01 0.01 0.01 0.02 0.03 0.04 0.04 0.05 0.05 0.04 0.04 0.05 0.06 0.05 0.05 0.04 0.04 0.03
0.03 0.07 0.08 0.05 0.05 0.04 0.02 0.01 0.01 0.02 0.02 0.02 0.02 0.02 0.08 0.12 0.06 0.05 0.05 0.05 0.03 0.01 0.02 0.02 0.03 0.03 0.03 0.02 0.01 0.02 0.02 0.02 0.02 0.02 0.02 0.03 0.03 0.04 0.04 0.04 0.04 0.03 0.03 0.05 0.05 0.04 0.04 0.04 0.03
0.02 0.05 0.08 0.05 0.04 0.05 0.04 0.01 0.01 0.02 0.05 0.02 0.01 0.02 0.06 0.09 0.07 0.05 0.03 0.03 0.02 0.01 0.02 0.02 0.03 0.03 0.03 0.02 0.02 0.02 0.03 0.03 0.03 0.03 0.04 0.05 0.05 0.04 0.04 0.04 0.04 0.04 0.04 0.04 0.04 0.04 0.03 0.03 0.03
0.02 0.03 0.04 0.06 0.03 0.04 0.03 0.02 0.01 0.01 0.04 0.01 0.01 0.01 0.02 0.03 0.04 0.04 0.03 0.03 0.02 0.02 0.03 0.03 0.02 0.01 0.01 0.01 0.02 0.03 0.04 0.05 0.05 0.05 0.06 0.07 0.07 0.07 0.06 0.05 0.05 0.05 0.04 0.04 0.04 0.03 0.04 0.04 0.03
0.01 0.02 0.02 0.04 0.03 0.03 0.02 0.01 0.00 0.01 0.01 0.01 0.00 0.01 0.01 0.01 0.02 0.03 0.03 0.03 0.02 0.03 0.04 0.03 0.02 0.01 0.01 0.01 0.02 0.02 0.03 0.05 0.06 0.07 0.08 0.08 0.08 0.08 0.07 0.06 0.07 0.06 0.05 0.04 0.04 0.06 0.06 0.05 0.04
0.01 0.02 0.01 0.02 0.03 0.02 0.02 0.02 0.00 0.00 0.01 0.02 0.01 0.01 0.02 0.01 0.01 0.02 0.02 0.03 0.03 0.03 0.04 0.03 0.02 0.02 0.03 0.03 0.03 0.05 0.04 0.05 0.06 0.06 0.07 0.08 0.10 0.10 0.08 0.09 0.09 0.08 0.07 0.06 0.05 0.05 0.04 0.03 0.03
0.00 0.01 0.01 0.01 0.01 0.01 0.02 0.02 0.01 0.01 0.01 0.02 0.02 0.02 0.02 0.02 0.02 0.02 0.03 0.03 0.03 0.04 0.04 0.04 0.03 0.03 0.03 0.04 0.04 0.05 0.06 0.07 0.06 0.05 0.05 0.05 0.08 0.10 0.12 0.11 0.09 0.09 0.07 0.05 0.04 0.03 0.02 0.02 0.03
0.00 0.00 0.01 0.01 0.01 0.01 0.01 0.01 0.01 0.01 0.01 0.01 0.02 0.02 0.02 0.02 0.02 0.03 0.04 0.03 0.02 0.03 0.04 0.03 0.02 0.02 0.02 0.02 0.03 0.05 0.08 0.07 0.08 0.07 0.05 0.05 0.07 0.10 0.11 0.10 0.09 0.08 0.06 0.05 0.05 0.03 0.03 0.04 0.04
0.00 0.00 0.01 0.01 0.01 0.01 0.01 0.00 0.00 0.00 0.01 0.01 0.01 0.01 0.01 0.02 0.01 0.02 0.02 0.03 0.03 0.02 0.02 0.02 0.01 0.01 0.01 0.01 0.02 0.04 0.09 0.08 0.08 0.07 0.06 0.06 0.08 0.09 0.10 0.11 0.10 0.07 0.05 0.05 0.05 0.05 0.07 0.08 0.08
0.00 0.00 0.01 0.01 0.00 0.01 0.02 0.01 0.00 0.01 0.01 0.01 0.01 0.01 0.01 0.02 0.01 0.01 0.01 0.03 0.04 0.03 0.02 0.01 0.01 0.01 0.01 0.01 0.03 0.06 0.12 0.09 0.08 0.09 0.09 0.08 0.09 0.08 0.09 0.10 0.08 0.05 0.05 0.05 0.05 0.05 0.06 0.08 0.08
0.00 0.00 0.02 0.01 0.00 0.00 0.01 0.01 0.00 0.00 0.00 0.01 0.01 0.02 0.03 0.02 0.02 0.02 0.02 0.04 0.05 0.04 0.02 0.02 0.01 0.02 0.01 0.02 0.03 0.04 0.08 0.10 0.11 0.15 0.16 0.14 0.11 0.10 0.08 0.08 0.07 0.05 0.04 0.05 0.04 0.04 0.05 0.05 0.06
0.00 0.00 0.02 0.01 0.00 0.00 0.00 0.01 0.00 0.00 0.00 0.01 0.02 0.03 0.03 0.02 0.01 0.02 0.02 0.03 0.03 0.03 0.02 0.02 0.02 0.03 0.03 0.03 0.04 0.04 0.06 0.09 0.14 0.21 0.25 0.23 0.18 0.13 0.08 0.08 0.07 0.05 0.04 0.04 0.04 0.05 0.05 0.05 0.06
0.01 0.01 0.01 0.00 0.00 0.01 0.01 0.00 0.00 0.00 0.00 0.00 0.01 0.02 0.03 0.02 0.01 0.01 0.02 0.02 0.02 0.02 0.02 0.03 0.03 0.04 0.04 0.04 0.05 0.06 0.07 0.08 0.12 0.19 0.23 0.22 0.18 0.13 0.09 0.07 0.06 0.05 0.04 0.03 0.04 0.06 0.06 0.04 0.03
0.01 0.02 0.01 0.01 0.01 0.01 0.01 0.00 0.00 0.00 0.00 0.00 0.00 0.01 0.02 0.02 0.02 0.02 0.03 0.03 0.02 0.01 0.02 0.03 0.03 0.04 0.05 0.06 0.05 0.05 0.05 0.05 0.07 0.11 0.14 0.12 0.10 0.09 0.07 0.06 0.07 0.06 0.05 0.03 0.04 0.05 0.05 0.04 0.04
0.01 0.02 0.01 0.01 0.01 0.02 0.02 0.01 0.00 0.00 0.00 0.00 0.00 0.01 0.00 0.01 0.02 0.04 0.10 0.12 0.05 0.02 0.02 0.02 0.02 0.03 0.03 0.02 0.01 0.01 0.02 0.02 0.04 0.07 0.08 0.06 0.06 0.05 0.04 0.04 0.04 0.07 0.08 0.05 0.04 0.03 0.04 0.05 0.06
0.01 0.02 0.02 0.02 0.01 0.03 0.03 0.02 0.01 0.01 0.01 0.00 0.00 0.00 0.00 0.01 0.01 0.04 0.12 0.11 0.05 0.03 0.02 0.02 0.01 0.01 0.01 0.01 0.01 0.01 0.01 0.01 0.02 0.02 0.03 0.02 0.02 0.02 0.01 0.02 0.03 0.05 0.06 0.06 0.05 0.04 0.04 0.04 0.05
0.01 0.01 0.01 0.01 0.02 0.03 0.03 0.02 0.02 0.02 0.02 0.01 0.01 0.00 0.00 0.00 0.01 0.02 0.06 0.02 0.01 0.02 0.02 0.02 0.01 0.01 0.01 0.01 0.01 0.01 0.01 0.01 0.01 0.01 0.01 0.01 0.02 0.01 0.01 0.02 0.02 0.03 0.05 0.05 0.05 0.05 0.05 0.05 0.04
0.02 0.02 0.01 0.01 0.01 0.01 0.01 0.02 0.02 0.02 0.02 0.01 0.01 0.00 0.00 0.00 0.01 0.01 0.00 0.00 0.01 0.01 0.01 0.01 0.01 0.00 0.00 0.00 0.01 0.01 0.01 0.01 0.01 0.01 0.01 0.01 0.01 0.01 0.01 0.02 0.02 0.02 0.04 0.04 0.03 0.03 0.04 0.06 0.05
0.02 0.03 0.02 0.02 0.01 0.01 0.01 0.01 0.01 0.01 0.02 0.01 0.01 0.01 0.01 0.01 0.01 0.01 0.01 0.01 0.02 0.01 0.01 0.01 0.01 0.00 0.00 0.00 0.00 0.01 0.01 0.01 0.02 0.01 0.01 0.01 0.01 0.01 0.01 0.01 0.02 0.03 0.03 0.03 0.03 0.03 0.03 0.06 0.06
0.01 0.02 0.01 0.02 0.02 0.03 0.03 0.02 0.03 0.02 0.02 0.02 0.01 0.01 0.01 0.01 0.02 0.02 0.01 0.01 0.03 0.01 0.01 0.01 0.01 0.01 0.01 0.00 0.00 0.01 0.01 0.01 0.01 0.01 0.01 0.01 0.01 0.01 0.01 0.02 0.02 0.03 0.03 0.03 0.03 0.03 0.04 0.06 0.06
0.02 0.02 0.02 0.03 0.03 0.04 0.04 0.03 0.03 0.03 0.01 0.01 0.01 0.01 0.01 0.02 0.03 0.02 0.02 0.02 0.03 0.03 0.02 0.01 0.01 0.01 0.00 0.00 0.00 0.00 0.01 0.01 0.01 0.02 0.02 0.02 0.01 0.01 0.01 0.01 0.02 0.02 0.02 0.02 0.02 0.03 0.03 0.04 0.04
0.03 0.02 0.02 0.03 0.03 0.03 0.03 0.02 0.02 0.02 0.01 0.01 0.01 0.01 0.03 0.03 0.04 0.03 0.03 0.03 0.04 0.03 0.02 0.01 0.01 0.00 0.00 0.00 0.01 0.01 0.01 0.01 0.01 0.02 0.01 0.02 0.02 0.02 0.03 0.03 0.02 0.02 0.02 0.02 0.02 0.02 0.03 0.03 0.03
0.02 0.02 0.01 0.02 0.02 0.03 0.03 0.02 0.02 0.01 0.01 0.00 0.00 0.01 0.02 0.05 0.06 0.07 0.06 0.04 0.03 0.03 0.04 0.05 0.01 0.01 0.01 0.01 0.01 0.02 0.02 0.02 0.02 0.02 0.02 0.02 0.02 0.01 0.02 0.02 0.02 0.03 0.04 0.04 0.03 0.03 0.03 0.03 0.04
0.02 0.02 0.01 0.01 0.01 0.02 0.04 0.03 0.03 0.03 0.02 0.01 0.01 0.02 0.02 0.03 0.05 0.06 0.06 0.05 0.03 0.02 0.03 0.02 0.02 0.01 0.01 0.01 0.03 0.03 0.03 0.02 0.03 0.03 0.02 0.02 0.02 0.02 0.02 0.03 0.02 0.03 0.03 0.04 0.04 0.04 0.04 0.04 0.03
0.02 0.03 0.02 0.01 0.01 0.01 0.03 0.02 0.02 0.02 0.02 0.02 0.02 0.03 0.03 0.04 0.04 0.03 0.03 0.03 0.03 0.02 0.03 0.04 0.04 0.03 0.03 0.03 0.04 0.04 0.03 0.03 0.03 0.03 0.02 0.02 0.03 0.03 0.03 0.04 0.04 0.03 0.02 0.03 0.04 0.04 0.03 0.03 0.03
0.01 0.02 0.01 0.01 0.01 0.01 0.02 0.01 0.01 0.01 0.02 0.03 0.03 0.04 0.05 0.06 0.04 0.03 0.02 0.02 0.02 0.01 0.03 0.05 0.08 0.09 0.08 0.07 0.06 0.06 0.05 0.04 0.03 0.02 0.02 0.02 0.02 0.02 0.02 0.03 0.02 0.02 0.02 0.02 0.03 0.03 0.04 0.04 0.04
MSLP
1003.55 1005.21 1007.06 1008.90 1010.53 1011.79 1012.63 1013.06 1013.16 1013.09 1013.01 1013.05 1013.28 1013.70 1014.24 1014.80 1015.25 1015.49 1015.47 1015.22 1014.80 1014.31 1013.86 1013.54 1013.39 1013.42 1013.58 1013.80 1014.03 1014.23 1014.37 1014.47 1014.57 1014.69 1014.87 1015.11 1015.38 1015.65 1015.88 1016.04 1016.11 1016.10 1016.04 1015.96 1015.90 1015.86 1015.88 1015.92 1015.99
1003.77 1005.69 1007.74 1009.66 1011.26 1012.41 1013.05 1013.23 1013.09 1012.80 1012.56 1012.50 1012.69 1013.12 1013.70 1014.31 1014.81 1015.11 1015.17 1014.99 1014.65 1014.25 1013.90 1013.67 1013.62 1013.71 1013.91 1014.16 1014.40 1014.58 1014.71 1014.79 1014.87 1014.97 1015.13 1015.33 1015.56 1015.80 1015.99 1016.12 1016.17 1016.16 1016.10 1016.05 1016.01 1016.00 1016.03 1016.08 1016.14
1004.14 1006.26 1008.42 1010.38 1011.92 1012.92 1013.37 1013.35 1013.02 1012.59 1012.24 1012.13 1012.30 1012.73 1013.32 1013.94 1014.46 1014.78 1014.86 1014.72 1014.45 1014.14 1013.88 1013.76 1013.79 1013.96 1014.22 1014.50 1014.74 1014.92 1015.02 1015.08 1015.13 1015.20 1015.31 1015.47 1015.66 1015.85 1016.01 1016.11 1016.16 1016.16 1016.14 1016.12 1016.12 1016.14 1016.19 1016.25 1016.30
1004.59 1006.83 1009.03 1010.95 1012.40 1013.27 1013.58 1013.42 1012.99 1012.50 1012.13 1012.02 1012.19 1012.63 1013.21 1013.81 1014.29 1014.58 1014.64 1014.52 1014.28 1014.04 1013.87 1013.83 1013.95 1014.19 1014.48 1014.78 1015.02 1015.18 1015.27 1015.30 1015.31 1015.35 1015.43 1015.55 1015.70 1015.86 1015.98 1016.07 1016.12 1016.14 1016.16 1016.18 1016.22 1016.28 1016.35 1016.41 1016.45
1005.07 1007.32 1009.48 1011.31 1012.64 1013.40 1013.62 1013.42 1012.99 1012.54 1012.23 1012.18 1012.40 1012.84 1013.40 1013.94 1014.36 1014.57 1014.58 1014.44 1014.22 1014.02 1013.91 1013.94 1014.12 1014.40 1014.71 1015.00 1015.23 1015.36 1015.42 1015.42 1015.42 1015.44 1015.50 1015.60 1015.72 1015.85 1015.95 1016.03 1016.08 1016.12 1016.16 1016.22 1016.30 1016.38 1016.46 1016.51 1016.53
1005.52 1007.68 1009.71 1011.39 1012.59 1013.26 1013.45 1013.29 1012.96 1012.63 1012.47 1012.53 1012.83 1013.30 1013.82 1014.30 1014.62 1014.75 1014.69 1014.51 1014.29 1014.11 1014.05 1014.13 1014.33 1014.61 1014.91 1015.17 1015.36 1015.46 1015.48 1015.47 1015.46 1015.48 1015.54 1015.64 1015.76 1015.87 1015.96 1016.02 1016.07 1016.11 1016.16 1016.22 1016.31 1016.40 1016.46 1016.50 1016.49
1005.91 1007.89 1009.71 1011.20 1012.25 1012.85 1013.06 1013.00 1012.83 1012.70 1012.73 1012.95 1013.35 1013.85 1014.35 1014.75 1014.98 1015.02 1014.90 1014.70 1014.48 1014.33 1014.30 1014.39 1014.59 1014.85 1015.10 1015.30 1015.43 1015.48 1015.48 1015.47 1015.47 1015.51 1015.60 1015.72 1015.84 1015.94 1016.01 1016.05 1016.07 1016.08 1016.11 1016.17 1016.23 1016.30 1016.35 1016.36 1016.32
1006.24 1007.98 1009.54 1010.80 1011.70 1012.23 1012.49 1012.56 1012.59 1012.68 1012.92 1013.30 1013.80 1014.33 1014.80 1015.14 1015.30 1015.28 1015.13 1014.92 1014.72 1014.61 1014.61 1014.72 1014.90 1015.11 1015.30 1015.42 1015.48 1015.48 1015.45 1015.44 1015.47 1015.56 1015.69 1015.83 1015.96 1016.06 1016.11 1016.10 1016.07 1016.04 1016.02 1016.04 1016.07 1016.12 1016.15 1016.14 1016.08
1006.55 1008.02 1009.30 1010.32 1011.06 1011.54 1011.83 1012.03 1012.25 1012.55 1012.97 1013.50 1014.07 1014.61 1015.06 1015.34 1015.45 1015.41 1015.26 1015.08 1014.95 1014.89 1014.93 1015.06 1015.22 1015.38 1015.49 1015.53 1015.52 1015.47 1015.43 1015.43 1015.49 1015.62 1015.80 1015.97 1016.12 1016.20 1016.21 1016.15 1016.06 1015.96 1015.89 1015.86 1015.86 1015.88 1015.90 1015.90 1015.86
1006.88 1008.08 1009.10 1009.90 1010.48 1010.90 1011.22 1011.53 1011.90 1012.35 1012.91 1013.52 1014.12 1014.66 1015.06 1015.31 1015.39 1015.34 1015.24 1015.13 1015.07 1015.10 1015.20 1015.35 1015.51 1015.62 1015.67 1015.64 1015.57 1015.48 1015.42 1015.44 1015.54 1015.71 1015.92 1016.12 1016.26 1016.32 1016.29 1016.18 1016.02 1015.86 1015.73 1015.66 1015.65 1015.67 1015.71 1015.74 1015.74
1007.28 1008.26 1009.05 1009.66 1010.11 1010.47 1010.81 1011.18 1011.63 1012.18 1012.79 1013.42 1014.01 1014.50 1014.84 1015.04 1015.10 1015.08 1015.04 1015.02 1015.06 1015.18 1015.36 1015.55 1015.71 1015.80 1015.80 1015.73 1015.62 1015.51 1015.46 1015.49 1015.61 1015.81 1016.04 1016.24 1016.37 1016.40 1016.32 1016.15 1015.94 1015.74 1015.59 1015.50 1015.50 1015.57 1015.66 1015.76 1015.84
1007.78 1008.60 1009.22 1009.68 1010.03 1010.35 1010.68 1011.08 1011.56 1012.12 1012.72 1013.30 1013.82 1014.22 1014.49 1014.63 1014.68 1014.68 1014.70 1014.77 1014.92 1015.13 1015.38 1015.62 1015.80 1015.89 1015.88 1015.79 1015.67 1015.57 1015.52 1015.56 1015.70 1015.90 1016.13 1016.31 1016.42 1016.41 1016.29 1016.09 1015.86 1015.64 1015.49 1015.44 1015.49 1015.63 1015.81 1016.01 1016.19
1008.38 1009.08 1009.60 1009.97 1010.26 1010.55 1010.87 1011.26 1011.73 1012.25 1012.78 1013.26 1013.66 1013.95 1014.12 1014.19 1014.22 1014.24 1014.31 1014.45 1014.67 1014.96 1015.27 1015.55 1015.76 1015.87 1015.88 1015.82 1015.72 1015.64 1015.61 1015.67 1015.81 1015.99 1016.19 1016.33 1016.40 1016.35 1016.21 1016.00 1015.77 1015.59 1015.49 1015.50 1015.64 1015.87 1016.17 1016.48 1016.77
1009.02 1009.66 1010.12 1010.45 1010.73 1011.00 1011.32 1011.70 1012.12 1012.56 1012.98 1013.34 1013.61 1013.77 1013.84 1013.85 1013.85 1013.87 1013.96 1014.14 1014.41 1014.73 1015.07 1015.38 1015.62 1015.77 1015.82 1015.81 1015.77 1015.74 1015.74 1015.81 1015.93 1016.08 1016.23 1016.32 1016.33 1016.26 1016.11 1015.91 1015.73 1015.61 1015.59 1015.70 1015.94 1016.28 1016.69 1017.12 1017.51
1009.62 1010.22 1010.66 1010.99 1011.28 1011.58 1011.91 1012.26 1012.63 1012.99 1013.30 1013.53 1013.66 1013.72 1013.71 1013.67 1013.64 1013.66 1013.75 1013.94 1014.20 1014.52 1014.85 1015.17 1015.43 1015.62 1015.73 1015.79 1015.83 1015.86 1015.91 1015.99 1016.09 1016.19 1016.27 1016.30 1016.26 1016.16 1016.01 1015.86 1015.74 1015.71 1015.79 1016.00 1016.34 1016.78 1017.28 1017.80 1018.27
1010.09 1010.65 1011.09 1011.45 1011.79 1012.12 1012.47 1012.81 1013.14 1013.41 1013.61 1013.74 1013.78 1013.76 1013.70 1013.64 1013.60 1013.63 1013.72 1013.89 1014.12 1014.40 1014.69 1014.98 1015.24 1015.47 1015.65 1015.79 1015.91 1016.02 1016.12 1016.22 1016.29 1016.34 1016.35 1016.31 1016.22 1016.10 1015.97 1015.86 1015.82 1015.88 1016.06 1016.36 1016.77 1017.28 1017.84 1018.39 1018.91
1010.34 1010.86 1011.31 1011.72 1012.12 1012.51 1012.89 1013.22 1013.50 1013.70 1013.82 1013.86 1013.84 1013.79 1013.74 1013.70 1013.70 1013.75 1013.85 1014.00 1014.19 1014.40 1014.63 1014.88 1015.12 1015.36 1015.60 1015.83 1016.04 1016.23 1016.38 1016.49 1016.55 1016.55 1016.49 1016.38 1016.24 1016.10 1015.98 1015.93 1015.96 1016.10 1016.35 1016.71 1017.17 1017.69 1018.25 1018.82 1019.34
1010.33 1010.82 1011.30 1011.78 1012.25 1012.71 1013.11 1013.44 1013.67 1013.80 1013.83 1013.81 1013.76 1013.72 1013.71 1013.74 1013.83 1013.94 1014.09 1014.23 1014.39 1014.54 1014.70 1014.88 1015.09 1015.34 1015.62 1015.92 1016.21 1016.48 1016.69 1016.82 1016.86 1016.81 1016.69 1016.52 1016.34 1016.18 1016.08 1016.07 1016.15 1016.34 1016.63 1017.01 1017.46 1017.96 1018.49 1019.01 1019.50
1010.08 1010.58 1011.11 1011.67 1012.24 1012.75 1013.18 1013.48 1013.65 1013.68 1013.63 1013.54 1013.48 1013.47 1013.54 1013.69 1013.90 1014.13 1014.35 1014.54 1014.68 1014.79 1014.88 1015.00 1015.17 1015.40 1015.70 1016.05 1016.42 1016.75 1017.01 1017.16 1017.20 1017.12 1016.95 1016.74 1016.53 1016.35 1016.26 1016.26 1016.38 1016.59 1016.88 1017.24 1017.65 1018.08 1018.53 1018.98 1019.42
1009.67 1010.21 1010.84 1011.52 1012.19 1012.78 1013.21 1013.46 1013.52 1013.43 1013.26 1013.09 1012.99 1013.02 1013.19 1013.48 1013.85 1014.23 1014.58 1014.84 1015.01 1015.10 1015.15 1015.21 1015.33 1015.54 1015.84 1016.22 1016.63 1017.02 1017.33 1017.51 1017.55 1017.46 1017.27 1017.02 1016.78 1016.60 1016.50 1016.51 1016.62 1016.83 1017.10 1017.40 1017.73 1018.08 1018.43 1018.79 1019.17
1009.21 1009.86 1010.64 1011.47 1012.27 1012.92 1013.34 1013.51 1013.43 1013.17 1012.84 1012.54 1012.38 1012.42 1012.67 1013.10 1013.65 1014.21 1014.71 1015.09 1015.32 1015.43 1015.46 1015.47 1015.54 1015.72 1016.01 1016.40 1016.84 1017.26 1017.61 1017.83 1017.89 1017.80 1017.60 1017.35 1017.10 1016.90 1016.79 1016.80 1016.89 1017.07 1017.28 1017.52 1017.76 1018.01 1018.26 1018.54 1018.86
1008.81 1009.64 1010.62 1011.65 1012.59 1013.30 1013.70 1013.76 1013.50 1013.03 1012.50 1012.03 1011.77 1011.78 1012.08 1012.63 1013.33 1014.07 1014.74 1015.25 1015.58 1015.73 1015.76 1015.75 1015.78 1015.92 1016.18 1016.56 1017.01 1017.46 1017.84 1018.10 1018.19 1018.13 1017.94 1017.70 1017.45 1017.25 1017.13 1017.12 1017.19 1017.32 1017.47 1017.64 1017.79 1017.94 1018.11 1018.31 1018.58
1008.54 1009.61 1010.84 1012.09 1013.17 1013.95 1014.32 1014.25 1013.81 1013.11 1012.34 1011.67 1011.26 1011.21 1011.52 1012.14 1012.98 1013.87 1014.69 1015.34 1015.77 1015.98 1016.03 1016.01 1016.01 1016.11 1016.34 1016.70 1017.15 1017.61 1018.02 1018.31 1018.44 1018.42 1018.28 1018.06 1017.82 1017.63 1017.50 1017.47 1017.50 1017.59 1017.69 1017.78 1017.87 1017.94 1018.04 1018.18 1018.40
1008.44 1009.76 1011.25 1012.71 1013.94 1014.78 1015.12 1014.94 1014.31 1013.39 1012.39 1011.52 1010.96 1010.81 1011.09 1011.74 1012.66 1013.67 1014.62 1015.38 1015.90 1016.18 1016.26 1016.24 1016.22 1016.29 1016.49 1016.82 1017.26 1017.73 1018.16 1018.49 1018.67 1018.70 1018.60 1018.42 1018.21 1018.02 1017.90 1017.84 1017.84 1017.89 1017.94 1017.98 1018.01 1018.03 1018.08 1018.18 1018.36
1008.47 1010.02 1011.74 1013.38 1014.74 1015.62 1015.94 1015.67 1014.90 1013.80 1012.62 1011.58 1010.87 1010.62 1010.85 1011.50 1012.45 1013.52 1014.55 1015.40 1015.99 1016.33 1016.45 1016.44 1016.41 1016.46 1016.63 1016.94 1017.36 1017.84 1018.29 1018.65 1018.87 1018.95 1018.91 1018.77 1018.59 1018.43 1018.30 1018.23 1018.21 1018.21 1018.23 1018.24 1018.23 1018.22 1018.23 1018.30 1018.46
1008.55 1010.28 1012.14 1013.90 1015.34 1016.26 1016.56 1016.24 1015.38 1014.19 1012.90 1011.75 1010.95 1010.62 1010.80 1011.42 1012.37 1013.46 1014.52 1015.41 1016.06 1016.44 1016.59 1016.61 1016.59 1016.63 1016.79 1017.09 1017.50 1017.96 1018.43 1018.81 1019.08 1019.21 1019.21 1019.11 1018.97 1018.82 1018.70 1018.62 1018.58 1018.56 1018.56 1018.54 1018.52 1018.49 1018.49 1018.54 1018.66
1008.62 1010.41 1012.33 1014.13 1015.58 1016.50 1016.79 1016.46 1015.59 1014.39 1013.09 1011.93 1011.11 1010.76 1010.90 1011.49 1012.41 1013.47 1014.53 1015.42 1016.09 1016.50 1016.69 1016.74 1016.75 1016.81 1016.97 1017.26 1017.66 1018.13 1018.60 1019.00 1019.29 1019.45 1019.49 1019.44 1019.33 1019.20 1019.08 1019.00 1018.95 1018.92 1018.90 1018.88 1018.86 1018.83 1018.82 1018.86 1018.96
1008.60 1010.36 1012.22 1013.95 1015.34 1016.22 1016.51 1016.20 1015.40 1014.28 1013.08 1012.01 1011.25 1010.93 1011.08 1011.64 1012.51 1013.53 1014.54 1015.41 1016.07 1016.50 1016.73 1016.83 1016.88 1016.98 1017.17 1017.47 1017.88 1018.34 1018.80 1019.20 1019.51 1019.69 1019.76 1019.73 1019.65 1019.54 1019.44 1019.36 1019.31 1019.29 1019.27 1019.26 1019.23 1019.22 1019.21 1019.24 1019.32
1008.50 1010.12 1011.81 1013.38 1014.64 1015.44 1015.71 1015.46 1014.77 1013.82 1012.79 1011.89 1011.27 1011.05 1011.23 1011.78 1012.61 1013.56 1014.50 1015.33 1015.97 1016.42 1016.69 1016.85 1016.98 1017.13 1017.37 1017.70 1018.11 1018.57 1019.02 1019.41 1019.71 1019.90 1019.98 1019.98 1019.92 1019.84 1019.76 1019.70 1019.67 1019.65 1019.65 1019.65 1019.65 1019.64 1019.65 1019.68 1019.74
1008.37 1009.78 1011.23 1012.57 1013.63 1014.30 1014.53 1014.33 1013.79 1013.03 1012.24 1011.56 1011.14 1011.05 1011.30 1011.86 1012.63 1013.51 1014.38 1015.15 1015.77 1016.23 1016.56 1016.79 1017.00 1017.24 1017.54 1017.91 1018.34 1018.79 1019.23 1019.60 1019.89 1020.07 1020.16 1020.18 1020.15 1020.10 1020.05 1020.02 1020.02 1020.03 1020.05 1020.07 1020.09 1020.10 1020.12 1020.15 1020.20
Thickness
5848 5846 5842 5828 5802 5778 5772 5782 5793 5793 5792 5797 5801 5795 5784 5776 5767 5756 5775 5783 5782 5781 5781 5781 5781 5781 5781 5780 5780 5780 5779 5779 5779 5778 5777 5776 5775 5773 5772 5770 5769 5767 5766 5764 5763 5761 5760 5760 5758
5851 5848 5836 5816 5784 5761 5768 5787 5790 5794 5798 5803 5801 5795 5786 5779 5782 5778 5779 5782 5783 5782 5782 5781 5780 5780 5780 5779 5779 5778 5778 5777 5777 5776 5775 5774 5773 5771 5770 5768 5767 5766 5764 5763 5762 5760 5759 5758 5757
5853 5847 5823 5800 5779 5768 5772 5790 5796 5802 5808 5806 5797 5795 5787 5779 5783 5781 5783 5785 5784 5782 5781 5781 5780 5779 5779 5778 5778 5777 5776 5776 5775 5774 5773 5772 5771 5770 5768 5767 5766 5765 5763 5762 5761 5759 5758 5757 5756
5850 5833 5817 5791 5778 5790 5794 5798 5804 5800 5802 5804 5797 5786 5787 5793 5790 5787 5788 5787 5784 5782 5781 5780 5780 5779 5778 5777 5777 5776 5775 5774 5774 5773 5772 5771 5770 5769 5767 5766 5765 5764 5762 5761 5759 5758 5757 5756 5755
5847 5822 5797 5782 5784 5797 5805 5809 5808 5799 5794 5795 5794 5780 5778 5792 5795 5792 5789 5787 5784 5782 5781 5780 5779 5778 5777 5777 5776 5775 5774 5774 5773 5771 5770 5770 5768 5767 5766 5765 5763 5763 5761 5760 5759 5757 5756 5755 5754
5831 5814 5785 5775 5786 5798 5805 5811 5807 5796 5792 5792 5789 5779 5776 5790 5791 5789 5789 5787 5785 5783 5781 5780 5779 5778 5777 5776 5775 5774 5773 5773 5772 5770 5769 5768 5767 5766 5765 5764 5763 5761 5760 5759 5758 5757 5756 5754 5753
5824 5805 5788 5787 5787 5791 5802 5812 5805 5796 5790 5792 5793 5777 5777 5785 5791 5791 5789 5787 5785 5783 5781 5780 5779 5777 5776 5775 5774 5773 5773 5772 5770 5769 5768 5767 5766 5765 5764 5763 5762 5761 5759 5758 5758 5756 5755 5754 5753
5839 5812 5794 5792 5789 5791 5808 5812 5810 5803 5795 5802 5799 5779 5774 5786 5793 5792 5789 5786 5784 5782 5781 5779 5778 5777 5776 5775 5774 5773 5772 5771 5770 5768 5768 5767 5765 5763 5763 5762 5761 5760 5759 5758 5757 5756 5755 5754 5753
5848 5807 5789 5795 5796 5796 5810 5807 5808 5812 5804 5801 5800 5794 5792 5795 5794 5788 5783 5781 5780 5780 5780 5779 5778 5777 5776 5775 5774 5772 5771 5770 5769 5768 5767 5766 5764 5763 5762 5761 5761 5760 5759 5757 5756 5756 5754 5753 5752
5836 5803 5804 5818 5817 5810 5811 5809 5807 5801 5793 5790 5791 5795 5797 5795 5790 5784 5780 5777 5777 5778 5779 5780 5779 5778 5776 5775 5773 5771 5770 5769 5768 5767 5766 5765 5764 5763 5761 5761 5760 5759 5758 5757 5756 5755 5754 5753 5752
5836 5818 5823 5827 5828 5823 5814 5810 5812 5798 5785 5789 5789 5790 5793 5791 5788 5784 5782 5781 5780 5780 5781 5781 5780 5779 5777 5775 5773 5772 5771 5769 5768 5767 5766 5765 5763 5762 5761 5760 5759 5758 5757 5756 5756 5755 5754 5753 5752
5837 5834 5835 5831 5833 5826 5817 5812 5807 5802 5797 5804 5803 5800 5795 5790 5787 5785 5783 5782 5782 5781 5781 5782 5782 5780 5779 5777 5775 5773 5771 5770 5769 5767 5766 5765 5763 5762 5761 5759 5758 5757 5756 5755 5754 5754 5753 5752 5751
5834 5832 5836 5836 5832 5827 5821 5812 5808 5803 5809 5809 5806 5801 5796 5792 5790 5789 5788 5786 5785 5782 5783 5783 5783 5782 5780 5778 5776 5773 5772 5771 5769 5768 5767 5766 5764 5762 5761 5760 5758 5757 5756 5755 5754 5752 5752 5750 5749
5837 5836 5834 5833 5829 5826 5817 5810 5807 5802 5810 5806 5802 5799 5797 5794 5792 5789 5787 5786 5785 5785 5784 5784 5783 5782 5781 5778 5776 5775 5774 5772 5770 5768 5767 5766 5765 5763 5762 5760 5759 5757 5756 5755 5754 5752 5751 5749 5748
5841 5826 5822 5826 5825 5822 5817 5798 5802 5809 5810 5803 5801 5799 5798 5796 5795 5791 5790 5789 5788 5787 5787 5785 5784 5783 5781 5779 5778 5776 5774 5773 5770 5769 5768 5767 5765 5763 5762 5760 5758 5757 5756 5754 5753 5751 5750 5748 5747
5829 5812 5797 5814 5823 5821 5807 5782 5803 5812 5808 5800 5801 5800 5798 5797 5797 5796 5795 5793 5792 5790 5788 5787 5787 5783 5781 5780 5778 5776 5775 5773 5772 5770 5769 5767 5766 5764 5762 5760 5758 5757 5756 5754 5752 5751 5749 5747 5746
5806 5791 5792 5804 5821 5820 5805 5789 5804 5813 5808 5801 5801 5801 5799 5797 5797 5798 5798 5796 5794 5793 5790 5788 5786 5783 5782 5780 5779 5777 5775 5774 5773 5771 5769 5768 5766 5764 5762 5760 5759 5757 5756 5754 5753 5750 5748 5745 5744
5790 5791 5795 5797 5814 5816 5802 5797 5806 5812 5810 5804 5803 5802 5800 5798 5798 5800 5800 5798 5796 5794 5792 5789 5787 5784 5783 5781 5778 5776 5775 5773 5773 5771 5770 5769 5766 5765 5762 5760 5758 5757 5755 5752 5751 5749 5747 5746 5745
5810 5801 5796 5805 5821 5813 5802 5799 5805 5810 5809 5805 5803 5802 5801 5801 5804 5803 5802 5800 5797 5794 5791 5789 5787 5785 5783 5779 5776 5773 5771 5771 5771 5771 5770 5768 5766 5765 5762 5760 5758 5756 5754 5752 5750 5748 5746 5744 5744
5813 5800 5798 5808 5822 5813 5800 5799 5808 5812 5811 5812 5810 5806 5805 5803 5802 5802 5801 5800 5798 5795 5792 5790 5789 5787 5785 5782 5779 5777 5774 5772 5771 5770 5769 5768 5766 5764 5762 5759 5757 5755 5753 5751 5749 5747 5744 5743 5743
5809 5804 5802 5803 5813 5813 5800 5789 5798 5808 5813 5814 5815 5813 5811 5808 5804 5803 5802 5801 5800 5797 5795 5794 5791 5789 5787 5785 5781 5778 5774 5772 5769 5768 5767 5767 5766 5764 5761 5759 5757 5755 5753 5750 5749 5748 5745 5741 5741
5801 5820 5818 5810 5793 5781 5792 5762 5784 5798 5802 5808 5811 5811 5812 5812 5810 5805 5804 5803 5802 5801 5800 5796 5793 5791 5789 5786 5782 5777 5772 5768 5768 5768 5767 5766 5765 5763 5762 5759 5757 5755 5753 5750 5749 5749 5747 5743 5739
5816 5829 5822 5812 5793 5780 5784 5767 5776 5795 5793 5804 5812 5815 5816 5817 5814 5810 5809 5807 5807 5805 5802 5798 5795 5792 5790 5788 5784 5779 5774 5772 5770 5769 5767 5765 5765 5763 5762 5759 5757 5754 5752 5750 5749 5747 5746 5744 5740
5832 5819 5807 5794 5779 5760 5775 5768 5769 5791 5804 5811 5817 5820 5820 5820 5819 5816 5814 5811 5808 5806 5803 5800 5796 5792 5791 5788 5784 5780 5776 5772 5769 5767 5765 5763 5763 5762 5761 5759 5756 5754 5752 5750 5748 5746 5745 5743 5741
5819 5786 5758 5753 5744 5752 5777 5773 5777 5809 5822 5823 5822 5823 5824 5823 5820 5816 5813 5810 5807 5805 5803 5800 5796 5792 5790 5788 5785 5782 5778 5775 5771 5768 5765 5763 5760 5759 5758 5758 5755 5753 5751 5749 5747 5745 5743 5741 5739
5807 5789 5757 5742 5740 5751 5772 5768 5792 5822 5829 5831 5830 5829 5827 5824 5822 5819 5817 5814 5811 5807 5804 5800 5796 5793 5791 5788 5785 5783 5780 5777 5773 5771 5767 5764 5761 5759 5758 5756 5754 5752 5750 5748 5746 5743 5741 5739 5737
5805 5792 5791 5764 5757 5748 5756 5778 5801 5821 5822 5824 5825 5825 5824 5824 5823 5820 5818 5815 5812 5809 5806 5802 5797 5794 5791 5789 5786 5783 5780 5777 5774 5771 5768 5765 5762 5760 5757 5755 5752 5750 5748 5746 5744 5741 5739 5737 5734
5820 5806 5777 5760 5741 5735 5751 5765 5775 5799 5808 5815 5818 5819 5822 5823 5821 5820 5818 5816 5813 5811 5808 5804 5799 5795 5792 5790 5786 5783 5780 5777 5774 5770 5766 5764 5762 5759 5756 5753 5750 5748 5745 5744 5741 5738 5736 5734 5731
5805 5797 5779 5762 5758 5739 5735 5757 5803 5805 5812 5813 5815 5819 5821 5821 5819 5818 5817 5816 5813 5810 5806 5802 5798 5794 5791 5788 5785 5782 5779 5776 5773 5769 5766 5763 5760 5757 5754 5751 5748 5745 5743 5740 5738 5735 5733 5730 5727
5810 5798 5780 5760 5754 5752 5746 5762 5817 5815 5817 5817 5816 5818 5820 5821 5820 5818 5815 5812 5809 5805 5803 5800 5796 5793 5790 5788 5784 5780 5777 5773 5770 5767 5764 5761 5758 5755 5752 5749 5745 5742 5740 5737 5734 5731 5729 5725 5722